Timeline UpdatesTrip UpdatesNews PostsPvt Posts♥♥Travel TipsAdmin PostsConv PostsFollowed PostsChat RequestsBlog PostsPNR Posts

Disclaimer
Search
 
 
Thu Oct 30, 2014 17:44:44 ISTHomeTrainsΣChainsAtlasPNRForumGalleryNewsFAQTripsMembersLoginFeedback
No Recent News for this Train
Other Trains in the News **new
Latest...
Tr.No.17405 Tirupati-Adilabad Krishna Express is cancelled o­n 26.04.2014
Sat Apr 26, 2014 (03:18PM)
⇐ Return Journey: Train# 17406

17405/Krishna Express

NO Time-Table Change.
Sep 03 2014 (9:35PM)
Change Departure Station:
Change Arrival Station:
Post a Train Travel TipPost a Train Travel Tip **new
Post a Comment/Question/Picture/VideoPost a Comment/Question/Picture/Video
Inaugural Run
Wed Oct 02, 1974
Pantry/Catering
✕ NO Pantry Car
✓ Catering Avbl
Loco/Rake Reversals
SC/Secunderabad Junction (10); MUE/Mudkhed Junction (4);
RSA - Rake Sharing
17405/17406/17409/17410 has RSA.
Rake/Coach Composition
LOCO-SLR-UR-UR-UR-UR-UR-B1-C1-S1-S2-D1-D2-D3-D4-D5-D6-UR-UR-SLR
Loco
TPTY - SC: LGD WAP4/7. SC - ADB: KZJ WDG-3A.
News    PNR    Forum    Time-Table    Availability    Fare Chart    Map    Arr/Dep History    Trips    Gallery    ΣChains    X/O    Timeline    
Travel Time: 2h 33m    6 halts    Distance: 84 km    Avg Speed: 32 km/hr
Type: Mail/Express
Zone: SCR/South Central
Departs @ 18:07 (Avg 1h 16m late)
Platform# 1
SMTWTFS
Jangaon/ZN 
Arrives @ 20:40 (Avg 55m late)
Platform# 6
SMTWTFS
Secunderabad Junction/SC 

6 halts. 11 intermediate Stations between Jangaon and Secunderabad Junction

Show ALL intermediate Stations  

#TrkCodeStation NameX/OArrivesAvgDepartsAvgHaltPFDay#KmSpeedElevZoneAddress
1/==/TPTYTirupati Main (5)  -05:25+2111-652.840150mSCRChittoor Distt, Andhra Pradesh
2/==/RURenigunta Junction (5)XO  05:40+3005:42+322m--1-642.963113mSCRChittoor District, Andhra Pradesh
3/==/KHTSri Kalahasti (2)O  06:04+3606:05+371m21-619.88268mSCRChittoor District, Andhra Pradesh
4/==/VKIVenkatagiri (3)XO  06:23+3906:24+391m11-595.37677mSCRNellore District, Andhra Pradesh
5/==/VDDVendodu (2)XO  06:37+4406:38+451m--1-578.81955mSCRNellore, Andhra Pradesh
6/==/GDRGudur Junction (3)X  07:40+2307:42+252m21-559.59419mSCRGudur, Andhra Pradesh
7/==/VDEVedayapalem (2)X  08:02+3508:03+351m11-528.37327mSCRNellore, Andhra Pradesh
8/==/NLRNellore (4)  08:09+3708:11+382m21-521.17921mSCRNellore, Andhra Pradesh
9/==/BTTRBitragunta (2)  08:37+4708:38+511m11-486.87015mSCRBitragunta, Andhra Pradesh
10/==/KVZKavali (4)X  08:52+4908:53+511m31-470.39421mSCRKavali, Andhra Pradesh
11/==/SKMSingarayakonda (2)  09:17+1:0009:18+1:001m11-432.57226mSCRSingarayakonda, Andhra Pradesh
12/==/TNRTanguturu (3)X  09:26+1:0209:27+1:041m--1-422.93710mSCRTanguturu, Andhra Pradesh
13/==/OGLOngole (3)  09:57+5109:58+531m11-404.36412mSCROngole, Andhra Pradesh
14/==/ANBAmmanabrolu (3)O  10:12+5610:13+561m--1-389.47716mSCRAmmanabrolu, Andhra Pradesh
15/==/CJMChinnaganjam (3)XO  10:24+5710:25+581m--1-375.3839mSCRChinna Ganjam, Andhra Pradesh
16/==/VTMVetapalem (3)XO  10:34+1:0110:35+1:021m--1-362.8798mSCRVetapalem, Andhra Pradesh
17/==/CLXChirala (4)  10:41+1:0510:42+1:061m--1-355.0828mSCRChirala, Andhra Pradesh
18/==/BPPBapatla (3)  10:53+1:0910:54+1:111m--1-339.94610mSCRBapatla, Andhra Pradesh
19/==/NDONidubrolu (3)X  11:21+1:0411:22+1:051m--1-319.3519mSCRNidubrolu, Andhra Pradesh
20/==/TELTenali Junction (5)  11:48+1:0311:50+1:032m41-297.36516mSCRTel: 08644-227834, Andhra Pradesh
21/==/DIGDuggirala (3)  11:59+3612:00+371m--1-287.68316mSCRDuggirala, Andhra Pradesh
22/==/PVDPeddavadiapudi (3)XO  12:07+3712:08+311m--1-277.91120mSCRKL University to NH 5, Andhra Pradesh
23/==/BZAVijayawada Junction (10)X  13:15+3013:30+2915m101-266.04224mSCRVijayawada 520001, Andhra Pradesh
24/==/KIKondapalli (2)  13:52+2513:53+251m11-250.56735mSCRKondapalli, Andhra Pradesh
25/==/YPErrupalem (2)X  14:15+3914:16+401m--1-225.97757mSCRKhammam Dist., Telangana
26/==/MDRMadhira (2)X  14:28+4314:29+441m21-210.58561mSCRKhammam Dist., Telangana
27/==/BKLBona Kalu (2)  14:41+4814:42+501m21-193.513997mSCRKhammam Dist., Telangana
28/==/KMTKhammam (2)X  14:54+5814:56+592m21-165.749118mSCRKhammam 507001, Telangana
29/==/DKJDornakal Junction (3)X  15:24+5415:25+551m11-142.657153mSCRWarangal District, Telangana
30/==/GLAGarla (2)  15:30-15:31-1m21-137.974156mSCRKhammam Dist., Telangana
31/==/MABDMahbubabad (2)  15:47+5815:48+1:001m21-118.281200mSCRWarangal Dist., Telangana
32/==/KDMKesamudram (2)  15:59+1:0116:00+1:031m21-103.377223mSCRWarangal Dist., Telangana
33/==/NKDNekonda (2)  16:12+1:0716:13+1:071m21-87.842236mSCRWarangal Dist., Telangana
34/==/WLWarangal (3)  16:55+1:0116:57+1:072m31-58.129271mSCRWarangal., Telangana
35/==/KZJKazipet Junction (3)X  17:18+1:0217:20+1:062m31-47.957292mSCRWarangal Dist., Telangana
36/==/GNPGhanpur (2)X  17:41+1:1017:42+1:111m11-28.167344mSCRWarangal Dist. / Enq Ph : 08711 220231, Telangana
37/==/RGPRaghunathpalli (2)O  17:57+1:1117:58+1:121m11-11.385357mSCRWarangal Dist., Telangana
38/==/ZNJangaon (2)»  18:06+1:1618:07+1:161m110.055380mSCRWarangal Dist., Telangana
39/==/PBPPembarti (2)  18:13+1:1518:14+1:151m115.564382mSCRWarangal Dist., Telangana
40/==/ALERAler (2)X  18:23+1:2018:24+1:201m1115.040366mSCRNalgonda Dist., Telangana
41/==/RAGRaigir (2)  18:48-18:49-1m1130.865415mSCRNalgonda, Telangana
42/==/BGBhongir (3)X  18:55+1:1318:56+1:131m2137.370455mSCRNalgonda Dist., Telangana
43/==/CHZCharlapalli (2)X  19:25+1:2219:26+1:221m1171.344523mSCRRangareddy Dist., Telangana
44/==/MLYMoula Ali (2)XO  19:35+1:2019:36+1:201m2178.05520mSCRSecunderabad, Telangana
45/==/SCSecunderabad Junction (10)•XO20:40+5521:10+4030m6183.715539mSCRSecunderabad 500003, Telangana
46/-=|MJFMalkajgiri (3)  21:24+4421:25+441m3187.138535mSCRSecunderabad, Telangana
47|=-|BMOBolarum (3)  21:41+4421:42+451m2197.375597mSCRSecunderabad, Telangana
48|--|MZLMirzapalli (1)  22:29+4922:30+511m11156.081530mSCRMedak Dist., Telangana
49|--|AKEAkanapet (1)  22:38+4622:39+471m11166.873566mSCRMedak District., Telangana
50|--|KMCKamareddi (3)  23:00+5023:02+492m--1192.553528mSCRNizamabad Dist., Telangana
51|--|NZBNizamabad (3)  00:01+4000:05+424m12244.371384mSCRNizamabad, Telangana
52|--|BSXBasar (2)  00:30+4100:32+422m12273.766358mSCRDist Adilabad, Telangana
53|--|DABDharmabad (2)  00:41+4400:42+481m22283.671354mSCRDegaon, Maharashtra
54|--|UMRIUmri (1)XO  01:07+5401:08+541m12313.014381mSCRHuzur Sahib Nanded, Maharashtra
55|--|MUEMudkhed Junction (4)X02:30+5502:40+1:1510m12332.567378mSCRMudkhed, Maharashtra
56|--|BOKRBhokar  02:59+1:2203:00+1:231m12353.756460mSCRBhokar, Maharashtra
57|--|HEMHimayatnagar  03:39+1:2103:40+1:231m--2389.867398mSCRNanded, Maharashtra
58|--|SHSKSahasrakund  03:54+1:2403:55+1:251m--2405.475402mSCRNanded, Maharashtra
59|--|BHBKBodhadi Bujrug  04:19+1:3104:20+1:321m--2435.563357mSCRKinwat, Maharashtra
60|--|KNVTKinwat (2)X  04:34+1:3304:35+1:331m12450.227319mSCRKinwat, Maharashtra
61|--|ADBAdilabad (3)  06:15+6-12495.4-248mSCRAdilabad, Telangana
Scroll to Top
Scroll to Bottom